Hot Springs, AR

6:57 PM CDT on May 24, 2018 (GMT -0500)
Hot Springs Memorial

Weather History for KHOT - June, 2013

Change the Weather History Date:

Monday, June 3, 2013

  Actual Average Record
Temperature  
Mean Temperature 70 °F -  
Max Temperature 82 °F 85 °F 96 °F (2011)
Min Temperature 57 °F 62 °F 50 °F (1969)
Cooling Degree Days 4    
Growing Degree Days 20 (Base 50)    
Moisture  
Dew Point 58 °F    
Average Humidity 68    
Maximum Humidity 93    
Minimum Humidity 41    
Precipitation  
Precipitation 0.00 in - - ()
Sea Level Pressure  
Sea Level Pressure 29.98 in    
Wind  
Wind Speed 4 mph (East)    
Max Wind Speed 10 mph    
Max Gust Speed -    
Visibility 10 miles    
Events      
Averages and records for this station are not official NWS values.
T = Trace of Precipitation, MM = Missing Value Source: NWS Daily Summary

Daily Weather History Graph

Daily Weather History Graph

Search for Another Location

Airport or City:

Astronomy

Jun. 03, 2013 Rise Set
Actual Time 6:00 AM CDT 8:21 PM CDT
Civil Twilight 5:31 AM CDT 8:50 PM CDT
Nautical Twilight 4:55 AM CDT 9:25 PM CDT
Astronomical Twilight 4:16 AM CDT 10:04 PM CDT
Moon 2:47 AM CDT (6/3) 4:01 PM CDT (6/3)
Length of Visible Light 15h 18m
Length of Day
14h 20m
Waning Crescent, 22% of the Moon is Illuminated
Jun 3
Waning Crescent
Jun 8
New
Jun 16
First Quarter
Jun 23
Full
Jun 29
Last Quarter

Hourly Weather History & Observations

Time (CDT) Temp. Heat Index Dew Point Humidity Pressure Visibility Wind Dir Wind Speed Gust Speed Precip Events Conditions
12:53 AM 64.0 °F - 57.0 °F 78% 29.98 in 10.0 mi East 10.4 mph - N/A   Clear
1:53 AM 63.0 °F - 57.0 °F 81% 29.98 in 10.0 mi East 4.6 mph - N/A   Clear
2:53 AM 62.1 °F - 57.0 °F 84% 30.00 in 10.0 mi Calm Calm - N/A   Clear
3:53 AM 59.0 °F - 57.0 °F 93% 30.00 in 10.0 mi Calm Calm - N/A   Clear
4:53 AM 59.0 °F - 57.0 °F 93% 30.02 in 10.0 mi Calm Calm - N/A   Clear
5:53 AM 57.9 °F - 55.9 °F 93% 30.02 in 10.0 mi Calm Calm - N/A   Clear
6:53 AM 59.0 °F - 57.0 °F 93% 30.03 in 10.0 mi Calm Calm - N/A   Clear
7:53 AM 64.0 °F - 57.0 °F 78% 30.03 in 10.0 mi Calm Calm - N/A   Clear
8:53 AM 66.9 °F - 55.9 °F 68% 30.03 in 10.0 mi ENE 8.1 mph - N/A   Clear
9:53 AM 70.0 °F - 57.0 °F 63% 30.03 in 10.0 mi Variable 3.5 mph - N/A   Clear
10:53 AM 73.0 °F - 57.9 °F 59% 30.02 in 10.0 mi NNE 4.6 mph - N/A   Clear
11:53 AM 75.0 °F - 59.0 °F 57% 30.01 in 10.0 mi Calm Calm - N/A   Partly Cloudy
12:53 PM 78.1 °F - 59.0 °F 52% 29.99 in 10.0 mi Calm Calm - N/A   Clear
1:53 PM 78.1 °F - 60.1 °F 54% 29.96 in 10.0 mi Variable 4.6 mph - N/A   Clear
2:53 PM 80.1 °F 80.7 °F 59.0 °F 48% 29.95 in 10.0 mi WSW 8.1 mph - N/A   Clear
3:53 PM 81.0 °F 80.7 °F 55.0 °F 41% 29.94 in 10.0 mi SW 6.9 mph - N/A   Clear
4:53 PM 82.0 °F 81.7 °F 57.0 °F 42% 29.92 in 10.0 mi Variable 5.8 mph - N/A   Scattered Clouds
5:53 PM 79.0 °F - 57.9 °F 48% 29.91 in 10.0 mi SE 4.6 mph - N/A   Scattered Clouds
6:53 PM 79.0 °F - 57.9 °F 48% 29.91 in 10.0 mi ESE 5.8 mph - N/A   Clear
7:53 PM 75.9 °F - 59.0 °F 56% 29.92 in 10.0 mi ESE 3.5 mph - N/A   Clear
8:53 PM 70.0 °F - 61.0 °F 73% 29.93 in 10.0 mi East 4.6 mph - N/A   Clear
9:53 PM 68.0 °F - 61.0 °F 78% 29.95 in 10.0 mi East 5.8 mph - N/A   Clear
10:53 PM 66.9 °F - 61.0 °F 81% 29.96 in 10.0 mi East 4.6 mph - N/A   Clear
11:53 PM 66.0 °F - 60.1 °F 81% 29.98 in 10.0 mi East 4.6 mph - N/A   Clear